Flugplatz Bottenhorn

Für EDGT sind keine METAR/TAF Berichte vorhanden.
Es werden die Flugwettermeldungen vom Flugplatz Siegerland in 28 km Entfernung angezeigt.

Bericht für EDGS

vom 01.12. um 09:20 UTC

Wind 16 kt aus 220° in Böen 26 kt

Sichtweite 4000 m

feuchter Dunst

bedeckt in 300 ft

Temperatur 4.0°C

Taupunkt 4.0°C

Luftfeuchtigkeit 100%

Luftdruck 994 hPa

EDGS 010920Z 22016G26KT 4000 BR OVC003 04/04 Q0994

Prognose für EDGS

vom 01.12. um 08:00 UTC

Zwischen 09:00 UTC und 12:00 UTC

Wind 20 kt aus 230° in Böen 30 kt

Sichtweite 8000 m

bedeckt in 500 ft


Zwischen 09:00 UTC und 18:00 UTC zeitweise

Sichtweite 2500 m

Regen

Sprühregen

bedeckt in 200 ft


Zwischen 12:00 und 15:00 UTC übergehend zu

Wind 15 kt aus 270° in Böen 25 kt

Sichtweite 8000 m

bedeckt in 500 ft

TAF EDGS 010800Z 0109/0118 23020G30KT 8000 OVC005 TEMPO 0109/0118 2500 RADZ OVC002 BECMG 0112/0115 27015G25KT
Impressum